SCP
0 0 0 0 0 0 0 0 0 0 -0 0 0 0 0 0 0 0 0 0 0 0 0 0 0 0 0 0 0 0 0 0 0 0 0 0 0 0
0 0 0 0 0 0 0 0 0 0 0 0 0 0 0 0 0 0 0 0 0 0 0 0 0 0 0 0 0 0 0 0 0 0 0 0 0 0
0 0 0 0 0 0 0 0 0 0 0 -0 0 0 0 0 0 0 0 0 0 0 0 0 0 0 0 0 0 0 0 0 0 0 0 0 0 0
0 0 0 0 0 0 0 -0 -0 0 0 -0 -0 0 0 0 0 0 0 0 0 0 0 0 0 0 0 0 0 0 0 0 0 0 0 0 0 0
0 0 0 0 0 0 0 -0 -0 0 0 -0 -0 -0 0 0 0 0 0 0 0 0 0 0 0 0 0 0 0 0 0 0 0 0 0 0 0 0
0 0 0 0 0 0 0 0 -0 0 0 0 0 0 0 0 0 0 0 0 0 0 0 0 0 0 0 0 0 0 0 0 0 0 0 0 0 0
0 0 0 0 0 0 0 0 0 -0 -0 0 0 0 0 0 0 0 0 0 0 0 0 0 0 0 0 0 0 0 0 0 0 0 0 0 0 0
0 0 0 0 0 0 0 0 0 0 0 0 0 0 0 0 0 0 0 0 0 0 0 0 0 0 0 0 0 0 0 0 0 0 0 0 0 0
0 0 0 0 0 0 0 0 0 0 0 0 0 0 0 0 0 0 0 0 0 0 0 0 0 0 0 0 0 0 0 0 0 0 0 0 0 0
0 0 0 0 0 0 0 0 0 0 0 0 0 0 0 0 0 0 0 0 0 0 0 0 0 0 0 0 0 0 0 0 0 0 0 0 0 0
0 0 0 0 0 0 0 0 0 0 0 0 0 0 0 0 0 0 0 0 0 0 0 0 0 0 0 0 0 0 0 0 0 0 0 0 0 0
0 0 0 0 0 0 0 0 0 0 0 0 0 0 0 0 0 0 0 0 0 0 0 0 0 0 0 0 0 0 0 0 0 0 0 0 0 0
0 0 0 0 0 0 0 0 0 0 0 0 0 0 0 0 0 0 0 0 0 0 0 0 0 0 0 0 0 0 0 0 0 0 0 0 0 0
0 0 0 0 0 0 0 0 0 0 0 0 0 0 0 0 0 0 0 0 0 0 0 0 0 0 0 0 0 0 0 0 0 0 0 0 0 0
0 0 0 0 0 0 0 0 0 0 0 0 0 0 0 0 0 0 0 0 0 0 0 0 0 0 0 0 0 0 0 0 0 0 0 0 0 0
0 0 0 0 0 0 0 0 0 0 0 0 0 0 0 0 0 0 0 0 0 0 0 0 0 0 0 0 0 0 0 0 0 0 0 0 0 0
0 0 0 0 0 0 0 0 0 0 0 0 0 0 0 0 0 0 0 0 0 0 0 0 0 0 0 0 0 0 0 0 0 0 0 0 0 0
0 0 0 0 0 0 0 0 0 0 0 0 0 0 0 0 0 0 0 0 0 0 0 0 0 0 0 0 0 0 0 0 0 0 0 0 0 0
0 0 0 0 0 0 0 0 0 0 0 0 0 0 0 0 0 0 0 0 0 0 0 0 0 0 0 0 0 0 0 0 0 0 0 0 0 0
0 0 0 0 0 0 0 0 0 0 0 0 0 0 0 0 0 0 0 0 0 0 0 0 0 0 0 0 0 0 0 0 0 0 0 0 0 0
0 0 0 0 0 0 0 0 0 0 0 0 0 0 0 0 0 0 0 0 0 0 0 0 0 0 0 0 0 0 0 0 0 0 0 0 0 0
0 0 0 0 0 0 0 0 0 0 0 0 0 0 0 0 0 0 0 0 0 0 0 0 0 0 0 0 0 0 0 0 0 0 0 0 0 0
0 0 0 0 0 0 0 0 0 0 0 0 0 0 0 0 0 0 0 0 0 0 0 0 0 0 0 0 0 0 0 0 0 0 0 0 0 0
Wind_Speed
2 1 1 0 1 1 1 2 2 2 3 2 2 2 2 2 5 3 3 6 7 8 8 9 10 11 12 13 14 15 16 17 17 18 18 18 18 18
1 2 1 0 1 0 0 0 1 2 3 2 2 2 2 3 5 3 3 7 8 9 9 10 10 11 12 13 14 15 15 16 17 17 18 18 18 18
1 1 1 1 1 0 0 0 1 1 2 3 2 2 2 3 4 3 3 3 4 9 9 10 10 11 12 13 14 15 15 16 16 17 17 17 17 18
1 1 1 1 1 0 0 0 1 1 2 3 2 2 3 3 3 4 4 3 3 8 10 10 10 11 12 13 13 14 15 15 15 16 16 16 17 18
2 2 1 1 1 1 1 1 1 0 1 2 2 2 2 2 3 4 4 3 4 6 8 9 10 11 12 13 13 14 14 15 15 15 15 16 16 17
1 1 2 2 2 2 1 1 1 0 0 1 2 2 2 2 2 3 4 4 4 4 6 7 9 11 12 13 13 13 14 14 15 15 15 15 16 16
0 0 1 2 2 1 1 1 1 1 1 1 1 1 2 2 2 2 4 5 4 3 4 5 5 4 6 9 11 13 14 14 15 15 15 15 15 15
0 0 0 0 0 1 1 1 1 1 1 1 1 2 2 2 2 3 3 4 4 3 4 5 3 4 5 4 10 13 14 14 15 15 15 15 15 15
1 0 1 1 1 1 1 2 2 1 0 1 2 2 2 2 2 2 3 3 4 4 4 4 3 4 5 6 12 12 14 15 15 15 15 15 15 15
1 0 0 1 0 1 1 1 1 1 1 1 1 2 2 2 2 2 3 3 3 2 2 3 4 4 6 5 9 12 14 15 15 15 15 15 15 16
1 0 0 0 0 2 2 1 1 2 3 3 3 3 4 5 3 2 2 3 3 2 1 2 3 5 5 4 6 11 14 15 15 16 16 16 16 15
1 1 1 0 1 2 1 0 0 1 2 2 3 4 3 4 5 2 1 2 2 3 2 3 3 4 5 4 4 5 7 11 14 15 16 16 16 9
0 1 1 1 2 3 2 1 1 1 1 1 2 2 2 2 2 2 2 1 2 2 2 2 2 2 3 5 5 4 5 6 7 9 12 16 16 12
0 1 1 2 3 3 2 2 3 3 1 1 1 2 2 3 3 3 3 2 2 3 3 2 2 3 3 4 5 5 5 5 5 6 6 12 13 14
1 1 2 2 3 3 3 4 3 1 1 1 1 1 2 2 2 3 3 3 3 3 3 2 2 3 3 4 4 5 6 5 5 6 7 7 7 7
1 2 2 3 3 3 3 3 2 1 1 0 1 1 2 2 2 2 3 3 3 3 3 3 3 3 3 4 4 5 5 5 6 7 7 7 6 6
1 1 1 1 1 1 1 2 2 2 1 1 1 1 2 2 2 3 2 2 3 4 5 4 3 3 3 3 3 4 4 5 5 6 6 7 6 6
2 1 1 1 0 1 1 1 2 1 1 1 1 1 2 2 2 3 2 2 3 4 4 4 5 4 3 2 2 3 4 4 5 6 5 5 7 6
1 1 0 0 0 0 0 0 1 1 1 1 1 1 2 2 2 2 3 3 3 3 4 3 4 4 4 5 4 2 3 5 5 5 5 4 5 7
1 1 0 0 0 0 0 0 1 1 1 1 1 1 1 2 2 2 2 3 3 4 4 3 3 3 3 3 4 5 6 4 4 5 5 4 4 7
0 0 0 0 0 0 0 1 1 1 1 1 1 1 1 1 2 2 2 4 3 3 4 4 4 6 3 2 3 4 4 6 5 4 5 5 5 5
0 1 0 0 0 0 0 0 1 1 1 1 1 1 1 1 2 2 2 2 3 3 3 3 4 3 2 2 3 4 5 6 7 7 6 4 3 4
0 1 0 0 0 0 0 0 1 1 1 1 1 1 1 1 2 2 2 2 2 3 3 3 3 3 3 2 3 4 5 6 5 5 5 8 8 7
Wind_Direction
150 147 150 179 163 201 194 193 197 236 262 269 278 288 308 299 312 305 300 311 321 322 324 325 326 325 325 324 324 324 324 323 322 321 320 320 320 319
134 133 134 140 107 119 178 239 224 211 246 255 254 278 297 314 322 317 299 324 323 323 323 325 327 327 324 325 326 325 324 324 323 322 321 322 322 321
144 143 146 138 147 141 87 67 261 215 242 273 275 291 287 304 317 314 307 306 312 323 323 324 326 326 326 328 326 325 325 324 323 323 323 323 322 322
152 148 159 137 139 142 138 152 263 237 224 261 281 290 285 293 306 312 323 324 312 319 325 325 325 327 328 329 329 328 328 326 325 324 324 325 325 325
161 166 183 163 168 174 184 211 229 322 253 244 269 282 287 305 319 318 323 316 318 319 323 323 324 327 328 329 331 332 330 329 328 328 328 328 328 327
162 163 180 184 196 199 197 204 192 196 277 267 275 288 296 310 320 327 330 330 321 322 326 325 323 325 328 330 334 335 335 334 332 332 332 331 330 329
88 128 197 186 201 206 192 191 182 193 227 282 294 307 316 330 326 317 316 320 313 327 327 319 321 318 323 329 334 337 338 338 337 336 335 334 334 334
106 15 9 134 138 102 85 179 183 190 217 244 271 285 295 299 307 319 323 331 321 331 328 313 319 314 315 318 331 337 340 342 341 339 337 337 338 336
112 72 354 7 45 61 43 35 19 19 68 212 246 264 277 282 296 308 309 306 290 306 324 305 314 313 315 322 331 338 343 344 344 343 341 340 339 338
102 143 124 318 59 89 66 31 11 5 347 310 253 276 286 282 274 285 289 304 291 294 326 301 312 311 317 316 329 339 344 344 345 345 345 343 341 338
49 81 108 291 52 49 63 49 8 350 14 15 2 358 354 357 1 357 340 336 319 314 344 320 312 315 311 310 327 338 340 341 343 346 346 346 344 340
40 20 12 26 9 25 55 39 325 341 6 5 7 7 3 358 9 9 327 324 321 312 335 337 318 332 320 310 319 330 336 336 340 342 345 345 345 342
61 354 338 29 32 28 24 359 351 37 30 14 360 357 355 355 348 344 333 307 305 296 312 335 316 326 306 306 312 322 334 333 337 339 340 344 345 347
81 332 353 36 34 31 29 41 46 46 37 25 15 4 354 343 334 332 331 323 295 277 286 298 291 304 310 309 306 317 325 330 336 338 338 341 343 343
60 45 33 44 44 37 47 47 38 34 40 35 10 340 319 311 322 331 336 338 334 317 309 302 288 296 292 295 301 313 320 325 339 341 341 341 339 342
62 55 50 51 51 51 41 27 16 21 42 30 331 316 317 331 343 338 335 340 345 340 332 322 309 302 303 294 294 307 320 319 328 334 335 335 339 344
102 74 49 39 33 23 23 24 15 13 18 2 355 343 344 348 344 341 343 349 349 336 335 334 324 306 286 292 301 308 318 322 323 332 338 338 339 344
96 112 92 58 26 14 26 14 5 4 354 350 356 352 344 338 337 343 348 349 342 335 332 331 337 341 337 322 285 306 325 324 327 333 337 336 337 342
94 122 127 104 350 357 6 5 340 332 334 342 353 344 335 331 335 344 345 343 339 334 330 331 342 350 347 341 331 334 329 327 330 333 336 333 326 327
98 140 167 227 289 334 342 349 334 331 337 346 346 338 333 329 333 336 335 333 332 332 333 335 343 342 330 314 311 315 322 321 326 328 327 320 312 312
123 167 191 195 240 311 348 348 330 318 326 330 327 330 330 329 326 325 325 331 333 330 332 330 324 325 312 311 316 324 326 330 331 324 324 327 331 344
172 196 202 181 174 144 4 328 325 324 327 321 321 329 325 314 313 317 321 324 324 322 321 321 328 338 351 350 333 328 331 334 338 342 344 347 344 345
198 187 175 168 176 169 197 276 306 309 307 296 306 314 313 309 306 304 307 316 318 323 330 333 337 344 345 336 333 333 335 337 339 348 352 353 357 352